Year,Month,Day,Hour,Minute,Value (Times are PST for temperature in C)
2017,05,27,00,00,15.00
2017,05,27,00,01,14.90
2017,05,27,00,02,14.90
2017,05,27,00,03,14.80
2017,05,27,00,04,14.80
2017,05,27,00,05,14.80
2017,05,27,00,06,14.70
2017,05,27,00,07,14.70
2017,05,27,00,08,14.70
2017,05,27,00,09,14.60
2017,05,27,00,10,14.60
2017,05,27,00,11,14.60
2017,05,27,00,12,14.60
2017,05,27,00,13,14.60
2017,05,27,00,14,14.50
2017,05,27,00,15,14.50
2017,05,27,00,16,14.40
2017,05,27,00,17,14.40
2017,05,27,00,18,14.40
2017,05,27,00,19,14.40
2017,05,27,00,20,14.40
2017,05,27,00,21,14.30
2017,05,27,00,22,14.30
2017,05,27,00,23,14.30
2017,05,27,00,24,14.30
2017,05,27,00,25,14.30
2017,05,27,00,26,14.30
2017,05,27,00,27,14.20
2017,05,27,00,28,14.20
2017,05,27,00,29,14.20
2017,05,27,00,30,14.20
2017,05,27,00,31,14.20
2017,05,27,00,32,14.20
2017,05,27,00,33,14.20
2017,05,27,00,34,14.20
2017,05,27,00,35,14.10
2017,05,27,00,36,14.10
2017,05,27,00,37,14.10
2017,05,27,00,38,14.10
2017,05,27,00,39,14.10
2017,05,27,00,40,14.10
2017,05,27,00,41,14.10
2017,05,27,00,42,14.00
2017,05,27,00,43,14.00
2017,05,27,00,44,14.00
2017,05,27,00,45,14.00
2017,05,27,00,46,14.00
2017,05,27,00,47,14.00
2017,05,27,00,48,14.00
2017,05,27,00,49,13.90
2017,05,27,00,50,13.90
2017,05,27,00,51,13.90
2017,05,27,00,52,13.90
2017,05,27,00,53,13.80
2017,05,27,00,54,13.80
2017,05,27,00,55,13.80
2017,05,27,00,56,13.80
2017,05,27,00,57,13.80
2017,05,27,00,58,13.80
2017,05,27,00,59,13.80
2017,05,27,01,00,13.80
2017,05,27,01,01,13.80
2017,05,27,01,02,13.80
2017,05,27,01,03,13.70
2017,05,27,01,04,13.70
2017,05,27,01,05,13.70
2017,05,27,01,06,13.70
2017,05,27,01,07,13.70
2017,05,27,01,08,13.70
2017,05,27,01,09,13.70
2017,05,27,01,10,13.70
2017,05,27,01,11,13.70
2017,05,27,01,12,13.70
2017,05,27,01,13,13.60
2017,05,27,01,14,13.60
2017,05,27,01,15,13.60
2017,05,27,01,16,13.60
2017,05,27,01,17,13.50
2017,05,27,01,18,13.50
2017,05,27,01,19,13.50
2017,05,27,01,20,13.40
2017,05,27,01,21,13.40
2017,05,27,01,22,13.40
2017,05,27,01,23,13.40
2017,05,27,01,24,13.40
2017,05,27,01,25,13.40
2017,05,27,01,26,13.30
2017,05,27,01,27,13.30
2017,05,27,01,28,13.30
2017,05,27,01,29,13.30
2017,05,27,01,30,13.30
2017,05,27,01,31,13.30
2017,05,27,01,32,13.30
2017,05,27,01,33,13.30
2017,05,27,01,34,13.30
2017,05,27,01,35,13.30
2017,05,27,01,36,13.20
2017,05,27,01,37,13.20
2017,05,27,01,38,13.20
2017,05,27,01,39,13.20
2017,05,27,01,40,13.20
2017,05,27,01,41,13.20
2017,05,27,01,42,13.20
2017,05,27,01,43,13.20
2017,05,27,01,44,13.20
2017,05,27,01,45,13.10
2017,05,27,01,46,13.10
2017,05,27,01,47,13.10
2017,05,27,01,48,13.10
2017,05,27,01,49,13.10
2017,05,27,01,50,13.10
2017,05,27,01,51,13.10
2017,05,27,01,52,13.10
2017,05,27,01,53,13.00
2017,05,27,01,54,13.00
2017,05,27,01,55,13.00
2017,05,27,01,56,13.00
2017,05,27,01,57,13.00
2017,05,27,01,58,12.90
2017,05,27,01,59,12.90
2017,05,27,02,00,12.90
2017,05,27,02,01,12.90
2017,05,27,02,02,12.90
2017,05,27,02,03,12.90
2017,05,27,02,04,12.90
2017,05,27,02,05,12.90
2017,05,27,02,06,12.90
2017,05,27,02,07,12.90
2017,05,27,02,08,12.90
2017,05,27,02,09,12.90
2017,05,27,02,10,12.90
2017,05,27,02,11,12.80
2017,05,27,02,12,12.80
2017,05,27,02,13,12.80
2017,05,27,02,14,12.80
2017,05,27,02,15,12.80
2017,05,27,02,16,12.80
2017,05,27,02,17,12.80
2017,05,27,02,18,12.80
2017,05,27,02,19,12.80
2017,05,27,02,20,12.80
2017,05,27,02,21,12.80
2017,05,27,02,22,12.80
2017,05,27,02,23,12.80
2017,05,27,02,24,12.80
2017,05,27,02,25,12.80
2017,05,27,02,26,12.80
2017,05,27,02,27,12.80
2017,05,27,02,28,12.70
2017,05,27,02,29,12.70
2017,05,27,02,30,12.70
2017,05,27,02,31,12.70
2017,05,27,02,32,12.70
2017,05,27,02,33,12.70
2017,05,27,02,34,12.70
2017,05,27,02,35,12.70
2017,05,27,02,36,12.60
2017,05,27,02,37,12.60
2017,05,27,02,38,12.60
2017,05,27,02,39,12.60
2017,05,27,02,40,12.60
2017,05,27,02,41,12.60
2017,05,27,02,42,12.50
2017,05,27,02,43,12.50
2017,05,27,02,44,12.50
2017,05,27,02,45,12.50
2017,05,27,02,46,12.40
2017,05,27,02,47,12.40
2017,05,27,02,48,12.40
2017,05,27,02,49,12.40
2017,05,27,02,50,12.40
2017,05,27,02,51,12.40
2017,05,27,02,52,12.30
2017,05,27,02,53,12.30
2017,05,27,02,54,12.30
2017,05,27,02,55,12.30
2017,05,27,02,56,12.30
2017,05,27,02,57,12.30
2017,05,27,02,58,12.30
2017,05,27,02,59,12.20
2017,05,27,03,00,12.20
2017,05,27,03,01,12.20
2017,05,27,03,02,12.20
2017,05,27,03,03,12.20
2017,05,27,03,04,12.20
2017,05,27,03,05,12.20
2017,05,27,03,06,12.20
2017,05,27,03,07,12.20
2017,05,27,03,08,12.20
2017,05,27,03,09,12.10
2017,05,27,03,10,12.10
2017,05,27,03,11,12.10
2017,05,27,03,12,12.10
2017,05,27,03,13,12.10
2017,05,27,03,14,12.00
2017,05,27,03,15,12.00
2017,05,27,03,16,12.00
2017,05,27,03,17,12.00
2017,05,27,03,18,12.00
2017,05,27,03,19,12.00
2017,05,27,03,20,11.90
2017,05,27,03,21,11.90
2017,05,27,03,22,11.90
2017,05,27,03,23,11.90
2017,05,27,03,24,11.90
2017,05,27,03,25,11.90
2017,05,27,03,26,11.90
2017,05,27,03,27,12.00
2017,05,27,03,28,12.00
2017,05,27,03,29,12.00
2017,05,27,03,30,12.00
2017,05,27,03,31,12.00
2017,05,27,03,32,12.00
2017,05,27,03,33,12.00
2017,05,27,03,34,12.00
2017,05,27,03,35,12.00
2017,05,27,03,36,12.00
2017,05,27,03,37,12.00
2017,05,27,03,38,12.00
2017,05,27,03,39,12.00
2017,05,27,03,40,12.00
2017,05,27,03,41,11.90
2017,05,27,03,42,11.90
2017,05,27,03,43,11.90
2017,05,27,03,44,11.90
2017,05,27,03,45,11.90
2017,05,27,03,46,11.90
2017,05,27,03,47,11.90
2017,05,27,03,48,11.90
2017,05,27,03,49,11.90
2017,05,27,03,50,11.80
2017,05,27,03,51,11.80
2017,05,27,03,52,11.80
2017,05,27,03,53,11.80
2017,05,27,03,54,11.70
2017,05,27,03,55,11.70
2017,05,27,03,56,11.70
2017,05,27,03,57,11.70
2017,05,27,03,58,11.70
2017,05,27,03,59,11.60
2017,05,27,04,00,11.60
2017,05,27,04,01,11.60
2017,05,27,04,02,11.60
2017,05,27,04,03,11.60
2017,05,27,04,04,11.60
2017,05,27,04,05,11.60
2017,05,27,04,06,11.60
2017,05,27,04,07,11.60
2017,05,27,04,08,11.50
2017,05,27,04,09,11.50
2017,05,27,04,10,11.50
2017,05,27,04,11,11.50
2017,05,27,04,12,11.50
2017,05,27,04,13,11.40
2017,05,27,04,14,11.40
2017,05,27,04,15,11.40
2017,05,27,04,16,11.40
2017,05,27,04,17,11.40
2017,05,27,04,18,11.40
2017,05,27,04,19,11.40
2017,05,27,04,20,11.40
2017,05,27,04,21,11.40
2017,05,27,04,22,11.40
2017,05,27,04,23,11.40
2017,05,27,04,24,11.40
2017,05,27,04,25,11.40
2017,05,27,04,26,11.40
2017,05,27,04,27,11.40
2017,05,27,04,28,11.40
2017,05,27,04,29,11.40
2017,05,27,04,30,11.40
2017,05,27,04,31,11.40
2017,05,27,04,32,11.40
2017,05,27,04,33,11.40
2017,05,27,04,34,11.40
2017,05,27,04,35,11.30
2017,05,27,04,36,11.40
2017,05,27,04,37,11.30
2017,05,27,04,38,11.30
2017,05,27,04,39,11.30
2017,05,27,04,40,11.30
2017,05,27,04,41,11.30
2017,05,27,04,42,11.30
2017,05,27,04,43,11.30
2017,05,27,04,44,11.30
2017,05,27,04,45,11.30
2017,05,27,04,46,11.30
2017,05,27,04,47,11.30
2017,05,27,04,48,11.30
2017,05,27,04,49,11.30
2017,05,27,04,50,11.30
2017,05,27,04,51,11.30
2017,05,27,04,52,11.30
2017,05,27,04,53,11.30
2017,05,27,04,54,11.30
2017,05,27,04,55,11.30
2017,05,27,04,56,11.30
2017,05,27,04,57,11.30
2017,05,27,04,58,11.30
2017,05,27,04,59,11.30
2017,05,27,05,00,11.30
2017,05,27,05,01,11.30
2017,05,27,05,02,11.30
2017,05,27,05,03,11.30
2017,05,27,05,04,11.30
2017,05,27,05,05,11.30
2017,05,27,05,06,11.30
2017,05,27,05,07,11.30
2017,05,27,05,08,11.30
2017,05,27,05,09,11.30
2017,05,27,05,10,11.30
2017,05,27,05,11,11.30
2017,05,27,05,12,11.30
2017,05,27,05,13,11.30
2017,05,27,05,14,11.20
2017,05,27,05,15,11.20
2017,05,27,05,16,11.20
2017,05,27,05,17,11.20
2017,05,27,05,18,11.20
2017,05,27,05,19,11.20
2017,05,27,05,20,11.20
2017,05,27,05,21,11.20
2017,05,27,05,22,11.20
2017,05,27,05,23,11.20
2017,05,27,05,24,11.20
2017,05,27,05,25,11.20
2017,05,27,05,26,11.20
2017,05,27,05,27,11.20
2017,05,27,05,28,11.20
2017,05,27,05,29,11.10
2017,05,27,05,30,11.10
2017,05,27,05,31,11.10
2017,05,27,05,32,11.10
2017,05,27,05,33,11.10
2017,05,27,05,34,11.10
2017,05,27,05,35,11.10
2017,05,27,05,36,11.10
2017,05,27,05,37,11.10
2017,05,27,05,38,11.10
2017,05,27,05,39,11.10
2017,05,27,05,40,11.10
2017,05,27,05,41,11.00
2017,05,27,05,42,11.00
2017,05,27,05,43,11.00
2017,05,27,05,44,11.00
2017,05,27,05,45,11.00
2017,05,27,05,46,10.90
2017,05,27,05,47,10.90
2017,05,27,05,48,10.90
2017,05,27,05,49,10.90
2017,05,27,05,50,10.90
2017,05,27,05,51,10.90
2017,05,27,05,52,10.90
2017,05,27,05,53,10.90
2017,05,27,05,54,10.90
2017,05,27,05,55,10.90
2017,05,27,05,56,10.90
2017,05,27,05,57,10.90
2017,05,27,05,58,10.90
2017,05,27,05,59,10.90
2017,05,27,06,00,10.90
2017,05,27,06,01,10.90
2017,05,27,06,02,10.90
2017,05,27,06,03,10.90
2017,05,27,06,04,10.90
2017,05,27,06,05,11.00
2017,05,27,06,06,11.00
2017,05,27,06,07,11.00
2017,05,27,06,08,11.00
2017,05,27,06,09,11.00
2017,05,27,06,10,11.00
2017,05,27,06,11,11.00
2017,05,27,06,12,11.00
2017,05,27,06,13,11.00
2017,05,27,06,14,11.00
2017,05,27,06,15,11.00
2017,05,27,06,16,11.00
2017,05,27,06,17,11.00
2017,05,27,06,18,11.00
2017,05,27,06,19,11.00
2017,05,27,06,20,11.10
2017,05,27,06,21,11.10
2017,05,27,06,22,11.10
2017,05,27,06,23,11.10
2017,05,27,06,24,11.10
2017,05,27,06,25,11.10
2017,05,27,06,26,11.10
2017,05,27,06,27,11.10
2017,05,27,06,28,11.10
2017,05,27,06,29,11.10
2017,05,27,06,30,11.10
2017,05,27,06,31,11.10
2017,05,27,06,32,11.10
2017,05,27,06,33,11.10
2017,05,27,06,34,11.10
2017,05,27,06,35,11.10
2017,05,27,06,36,11.10
2017,05,27,06,37,11.10
2017,05,27,06,38,11.10
2017,05,27,06,39,11.10
2017,05,27,06,40,11.20
2017,05,27,06,41,11.20
2017,05,27,06,42,11.20
2017,05,27,06,43,11.20
2017,05,27,06,44,11.20
2017,05,27,06,45,11.20
2017,05,27,06,46,11.20
2017,05,27,06,47,11.20
2017,05,27,06,48,11.20
2017,05,27,06,49,11.30
2017,05,27,06,50,11.30
2017,05,27,06,51,11.30
2017,05,27,06,52,11.30
2017,05,27,06,53,11.40
2017,05,27,06,54,11.40
2017,05,27,06,55,11.40
2017,05,27,06,56,11.40
2017,05,27,06,57,11.50
2017,05,27,06,58,11.50
2017,05,27,06,59,11.50
2017,05,27,07,00,11.60
2017,05,27,07,01,11.60
2017,05,27,07,02,11.60
2017,05,27,07,03,11.60
2017,05,27,07,04,11.60
2017,05,27,07,05,11.60
2017,05,27,07,06,11.70
2017,05,27,07,07,11.70
2017,05,27,07,08,11.70
2017,05,27,07,09,11.70
2017,05,27,07,10,11.70
2017,05,27,07,11,11.80
2017,05,27,07,12,11.80
2017,05,27,07,13,11.80
2017,05,27,07,14,11.90
2017,05,27,07,15,11.90
2017,05,27,07,16,11.90
2017,05,27,07,17,12.00
2017,05,27,07,18,12.00
2017,05,27,07,19,12.10
2017,05,27,07,20,12.10
2017,05,27,07,21,12.20
2017,05,27,07,22,12.20
2017,05,27,07,23,12.30
2017,05,27,07,24,12.30
2017,05,27,07,25,12.30
2017,05,27,07,26,12.40
2017,05,27,07,27,12.40
2017,05,27,07,28,12.50
2017,05,27,07,29,12.50
2017,05,27,07,30,12.60
2017,05,27,07,31,12.70
2017,05,27,07,32,12.70
2017,05,27,07,33,12.80
2017,05,27,07,34,12.90
2017,05,27,07,35,12.90
2017,05,27,07,36,13.00
2017,05,27,07,37,13.10
2017,05,27,07,38,13.20
2017,05,27,07,39,13.20
2017,05,27,07,40,13.30
2017,05,27,07,41,13.30
2017,05,27,07,42,13.40
2017,05,27,07,43,13.50
2017,05,27,07,44,13.60
2017,05,27,07,45,13.60
2017,05,27,07,46,13.70
2017,05,27,07,47,13.80
2017,05,27,07,48,13.90
2017,05,27,07,49,14.00
2017,05,27,07,50,14.10
2017,05,27,07,51,14.10
2017,05,27,07,52,14.20
2017,05,27,07,53,14.30
2017,05,27,07,54,14.40
2017,05,27,07,55,14.50
2017,05,27,07,56,14.70
2017,05,27,07,57,14.80
2017,05,27,07,58,14.90
2017,05,27,07,59,15.00
2017,05,27,08,00,15.00
2017,05,27,08,01,15.00
2017,05,27,08,02,15.00
2017,05,27,08,03,15.00
2017,05,27,08,04,15.00
2017,05,27,08,05,15.00
2017,05,27,08,06,15.10
2017,05,27,08,07,15.30
2017,05,27,08,08,15.40
2017,05,27,08,09,15.50
2017,05,27,08,10,15.60
2017,05,27,08,11,15.70
2017,05,27,08,12,15.80
2017,05,27,08,13,15.90
2017,05,27,08,14,16.00
2017,05,27,08,15,16.20
2017,05,27,08,16,16.30
2017,05,27,08,17,16.50
2017,05,27,08,18,16.60
2017,05,27,08,19,16.70
2017,05,27,08,20,16.80
2017,05,27,08,21,16.90
2017,05,27,08,22,17.10
2017,05,27,08,23,17.20
2017,05,27,08,24,17.40
2017,05,27,08,25,17.40
2017,05,27,08,26,17.50
2017,05,27,08,27,17.60
2017,05,27,08,28,17.70
2017,05,27,08,29,17.80
2017,05,27,08,30,17.90
2017,05,27,08,31,18.00
2017,05,27,08,32,18.00
2017,05,27,08,33,18.20
2017,05,27,08,34,18.20
2017,05,27,08,35,18.30
2017,05,27,08,36,18.40
2017,05,27,08,37,18.40
2017,05,27,08,38,18.50
2017,05,27,08,39,18.60
2017,05,27,08,40,18.60
2017,05,27,08,41,18.70
2017,05,27,08,42,18.70
2017,05,27,08,43,18.80
2017,05,27,08,44,18.80
2017,05,27,08,45,18.90
2017,05,27,08,46,18.90
2017,05,27,08,47,18.90
2017,05,27,08,48,19.00
2017,05,27,08,49,19.00
2017,05,27,08,50,19.10
2017,05,27,08,51,19.10
2017,05,27,08,52,19.20
2017,05,27,08,53,19.20
2017,05,27,08,54,19.20
2017,05,27,08,55,19.30
2017,05,27,08,56,19.40
2017,05,27,08,57,19.40
2017,05,27,08,58,19.50
2017,05,27,08,59,19.60
2017,05,27,09,00,19.60
2017,05,27,09,01,19.70
2017,05,27,09,02,19.80
2017,05,27,09,03,19.80
2017,05,27,09,04,19.90
2017,05,27,09,05,19.90
2017,05,27,09,06,20.00
2017,05,27,09,07,20.00
2017,05,27,09,08,20.00
2017,05,27,09,09,20.10
2017,05,27,09,10,20.10
2017,05,27,09,11,20.20
2017,05,27,09,12,20.20
2017,05,27,09,13,20.30
2017,05,27,09,14,20.40
2017,05,27,09,15,20.40
2017,05,27,09,16,20.50
2017,05,27,09,17,20.50
2017,05,27,09,18,20.60
2017,05,27,09,19,20.60
2017,05,27,09,20,20.70
2017,05,27,09,21,20.70
2017,05,27,09,22,20.70
2017,05,27,09,23,20.70
2017,05,27,09,24,20.70
2017,05,27,09,25,20.70
2017,05,27,09,26,20.70
2017,05,27,09,27,20.70
2017,05,27,09,28,20.80
2017,05,27,09,29,20.80
2017,05,27,09,30,20.80
2017,05,27,09,31,20.90
2017,05,27,09,32,20.90
2017,05,27,09,33,20.90
2017,05,27,09,34,21.00
2017,05,27,09,35,21.00
2017,05,27,09,36,21.00
2017,05,27,09,37,20.90
2017,05,27,09,38,20.90
2017,05,27,09,39,20.90
2017,05,27,09,40,20.90
2017,05,27,09,41,20.90
2017,05,27,09,42,20.90
2017,05,27,09,43,20.90
2017,05,27,09,44,20.90
2017,05,27,09,45,20.90
2017,05,27,09,46,20.90
2017,05,27,09,47,21.00
2017,05,27,09,48,21.00
2017,05,27,09,49,21.10
2017,05,27,09,50,21.10
2017,05,27,09,51,21.20
2017,05,27,09,52,21.30
2017,05,27,09,53,21.30
2017,05,27,09,54,21.40
2017,05,27,09,55,21.40
2017,05,27,09,56,21.40
2017,05,27,09,57,21.40
2017,05,27,09,58,21.50
2017,05,27,09,59,21.50
2017,05,27,10,00,21.60
2017,05,27,10,01,21.70
2017,05,27,10,02,21.60
2017,05,27,10,03,21.70
2017,05,27,10,04,21.70
2017,05,27,10,05,21.70
2017,05,27,10,06,21.80
2017,05,27,10,07,21.80
2017,05,27,10,08,21.80
2017,05,27,10,09,21.80
2017,05,27,10,10,21.80
2017,05,27,10,11,21.80
2017,05,27,10,12,21.80
2017,05,27,10,13,21.80
2017,05,27,10,14,21.80
2017,05,27,10,15,21.80
2017,05,27,10,16,21.80
2017,05,27,10,17,21.80
2017,05,27,10,18,21.80
2017,05,27,10,19,21.80
2017,05,27,10,20,21.80
2017,05,27,10,21,21.80
2017,05,27,10,22,21.80
2017,05,27,10,23,21.80
2017,05,27,10,24,21.90
2017,05,27,10,25,22.00
2017,05,27,10,26,22.00
2017,05,27,10,27,22.00
2017,05,27,10,28,22.00
2017,05,27,10,29,21.90
2017,05,27,10,30,21.90
2017,05,27,10,31,21.90
2017,05,27,10,32,21.90
2017,05,27,10,33,21.90
2017,05,27,10,34,21.90
2017,05,27,10,35,21.90
2017,05,27,10,36,21.90
2017,05,27,10,37,21.80
2017,05,27,10,38,21.80
2017,05,27,10,39,21.80
2017,05,27,10,40,21.80
2017,05,27,10,41,21.70
2017,05,27,10,42,21.70
2017,05,27,10,43,21.70
2017,05,27,10,44,21.70
2017,05,27,10,45,21.70
2017,05,27,10,46,21.70
2017,05,27,10,47,21.70
2017,05,27,10,48,21.70
2017,05,27,10,49,21.80
2017,05,27,10,50,21.80
2017,05,27,10,51,21.80
2017,05,27,10,52,21.80
2017,05,27,10,53,21.80
2017,05,27,10,54,21.80
2017,05,27,10,55,21.80
2017,05,27,10,56,21.80
2017,05,27,10,57,21.80
2017,05,27,10,58,21.80
2017,05,27,10,59,21.80
2017,05,27,11,00,21.80
2017,05,27,11,01,21.80
2017,05,27,11,02,21.80
2017,05,27,11,03,21.90
2017,05,27,11,04,22.00
2017,05,27,11,05,22.00
2017,05,27,11,06,22.00
2017,05,27,11,07,22.00
2017,05,27,11,08,22.00
2017,05,27,11,09,22.00
2017,05,27,11,10,22.10
2017,05,27,11,11,22.20
2017,05,27,11,12,22.30
2017,05,27,11,13,22.40
2017,05,27,11,14,22.50
2017,05,27,11,15,22.50
2017,05,27,11,16,22.60
2017,05,27,11,17,22.60
2017,05,27,11,18,22.70
2017,05,27,11,19,22.70
2017,05,27,11,20,22.70
2017,05,27,11,21,22.60
2017,05,27,11,22,22.60
2017,05,27,11,23,22.50
2017,05,27,11,24,22.50
2017,05,27,11,25,22.50
2017,05,27,11,26,22.60
2017,05,27,11,27,22.60
2017,05,27,11,28,22.60
2017,05,27,11,29,22.60
2017,05,27,11,30,22.60
2017,05,27,11,31,22.70
2017,05,27,11,32,22.80
2017,05,27,11,33,22.80
2017,05,27,11,34,22.80
2017,05,27,11,35,22.80
2017,05,27,11,36,22.70
2017,05,27,11,37,22.70
2017,05,27,11,38,22.60
2017,05,27,11,39,22.60
2017,05,27,11,40,22.60
2017,05,27,11,41,22.60
2017,05,27,11,42,22.60
2017,05,27,11,43,22.60
2017,05,27,11,44,22.50
2017,05,27,11,45,22.50
2017,05,27,11,46,22.50
2017,05,27,11,47,22.50
2017,05,27,11,48,22.50
2017,05,27,11,49,22.60
2017,05,27,11,50,22.60
2017,05,27,11,51,22.70
2017,05,27,11,52,22.80
2017,05,27,11,53,22.80
2017,05,27,11,54,22.80
2017,05,27,11,55,22.80
2017,05,27,11,56,22.80
2017,05,27,11,57,22.90
2017,05,27,11,58,22.90
2017,05,27,11,59,23.00
2017,05,27,12,00,23.00
2017,05,27,12,01,23.00
2017,05,27,12,02,23.00
2017,05,27,12,03,23.00
2017,05,27,12,04,22.90
2017,05,27,12,05,22.90
2017,05,27,12,06,22.90
2017,05,27,12,07,22.90
2017,05,27,12,08,22.90
2017,05,27,12,09,22.90
2017,05,27,12,10,23.00
2017,05,27,12,11,23.00
2017,05,27,12,12,23.10
2017,05,27,12,13,23.00
2017,05,27,12,14,23.10
2017,05,27,12,15,23.10
2017,05,27,12,16,23.10
2017,05,27,12,17,23.10
2017,05,27,12,18,23.20
2017,05,27,12,19,23.30
2017,05,27,12,20,23.40
2017,05,27,12,21,23.40
2017,05,27,12,22,23.40
2017,05,27,12,23,23.30
2017,05,27,12,24,23.40
2017,05,27,12,25,23.40
2017,05,27,12,26,23.40
2017,05,27,12,27,23.30
2017,05,27,12,28,23.30
2017,05,27,12,29,23.30
2017,05,27,12,30,23.30
2017,05,27,12,31,23.30
2017,05,27,12,32,23.30
2017,05,27,12,33,23.20
2017,05,27,12,34,23.10
2017,05,27,12,35,23.10
2017,05,27,12,36,23.10
2017,05,27,12,37,23.10
2017,05,27,12,38,23.20
2017,05,27,12,39,23.20
2017,05,27,12,40,23.30
2017,05,27,12,41,23.40
2017,05,27,12,42,23.40
2017,05,27,12,43,23.50
2017,05,27,12,44,23.50
2017,05,27,12,45,23.50
2017,05,27,12,46,23.40
2017,05,27,12,47,23.40
2017,05,27,12,48,23.40
2017,05,27,12,49,23.50
2017,05,27,12,50,23.50
2017,05,27,12,51,23.50
2017,05,27,12,52,23.60
2017,05,27,12,53,23.60
2017,05,27,12,54,23.60
2017,05,27,12,55,23.70
2017,05,27,12,56,23.70
2017,05,27,12,57,23.70
2017,05,27,12,58,23.70
2017,05,27,12,59,23.70
2017,05,27,13,00,23.70
2017,05,27,13,01,23.70
2017,05,27,13,02,23.70
2017,05,27,13,03,23.70
2017,05,27,13,04,23.70
2017,05,27,13,05,23.70
2017,05,27,13,06,23.70
2017,05,27,13,07,23.80
2017,05,27,13,08,23.80
2017,05,27,13,09,23.80
2017,05,27,13,10,23.90
2017,05,27,13,11,23.90
2017,05,27,13,12,23.90
2017,05,27,13,13,24.00
2017,05,27,13,14,24.00
2017,05,27,13,15,24.10
2017,05,27,13,16,24.20
2017,05,27,13,17,24.20
2017,05,27,13,18,24.20
2017,05,27,13,19,24.20
2017,05,27,13,20,24.20
2017,05,27,13,21,24.20
2017,05,27,13,22,24.10
2017,05,27,13,23,24.10
2017,05,27,13,24,24.00
2017,05,27,13,25,24.00
2017,05,27,13,26,24.00
2017,05,27,13,27,23.90
2017,05,27,13,28,23.90
2017,05,27,13,29,23.90
2017,05,27,13,30,23.90
2017,05,27,13,31,23.90
2017,05,27,13,32,23.90
2017,05,27,13,33,24.00
2017,05,27,13,34,24.00
2017,05,27,13,35,24.00
2017,05,27,13,36,24.00
2017,05,27,13,37,23.90
2017,05,27,13,38,23.90
2017,05,27,13,39,23.90
2017,05,27,13,40,23.90
2017,05,27,13,41,23.90
2017,05,27,13,42,23.90
2017,05,27,13,43,24.00
2017,05,27,13,44,24.00
2017,05,27,13,45,24.10
2017,05,27,13,46,24.20
2017,05,27,13,47,24.20
2017,05,27,13,48,24.30
2017,05,27,13,49,24.30
2017,05,27,13,50,24.30
2017,05,27,13,51,24.40
2017,05,27,13,52,24.30
2017,05,27,13,53,24.30
2017,05,27,13,54,24.30
2017,05,27,13,55,24.20
2017,05,27,13,56,24.20
2017,05,27,13,57,24.20
2017,05,27,13,58,24.20
2017,05,27,13,59,24.30
2017,05,27,14,00,24.40
2017,05,27,14,01,24.50
2017,05,27,14,02,24.60
2017,05,27,14,03,24.80
2017,05,27,14,04,24.80
2017,05,27,14,05,24.90
2017,05,27,14,06,24.90
2017,05,27,14,07,24.90
2017,05,27,14,08,24.90
2017,05,27,14,09,24.90
2017,05,27,14,10,24.90
2017,05,27,14,11,24.90
2017,05,27,14,12,24.90
2017,05,27,14,13,24.90
2017,05,27,14,14,24.90
2017,05,27,14,15,24.80
2017,05,27,14,16,24.80
2017,05,27,14,17,24.80
2017,05,27,14,18,24.70
2017,05,27,14,19,24.70
2017,05,27,14,20,24.80
2017,05,27,14,21,24.90
2017,05,27,14,22,24.90
2017,05,27,14,23,24.90
2017,05,27,14,24,24.90
2017,05,27,14,25,24.90
2017,05,27,14,26,24.80
2017,05,27,14,27,24.80
2017,05,27,14,28,24.80
2017,05,27,14,29,24.70
2017,05,27,14,30,24.70
2017,05,27,14,31,24.70
2017,05,27,14,32,24.80
2017,05,27,14,33,24.80
2017,05,27,14,34,24.80
2017,05,27,14,35,24.90
2017,05,27,14,36,24.90
2017,05,27,14,37,24.90
2017,05,27,14,38,24.90
2017,05,27,14,39,25.00
2017,05,27,14,40,25.00
2017,05,27,14,41,25.10
2017,05,27,14,42,25.00
2017,05,27,14,43,25.00
2017,05,27,14,44,25.00
2017,05,27,14,45,25.00
2017,05,27,14,46,24.90
2017,05,27,14,47,24.90
2017,05,27,14,48,24.90
2017,05,27,14,49,24.90
2017,05,27,14,50,24.90
2017,05,27,14,51,24.90
2017,05,27,14,52,24.90
2017,05,27,14,53,24.90
2017,05,27,14,54,24.90
2017,05,27,14,55,24.90
2017,05,27,14,56,24.90
2017,05,27,14,57,24.80
2017,05,27,14,58,24.80
2017,05,27,14,59,24.80
2017,05,27,15,00,24.80
2017,05,27,15,01,24.90
2017,05,27,15,02,24.90
2017,05,27,15,03,24.90
2017,05,27,15,04,24.90
2017,05,27,15,05,24.90
2017,05,27,15,06,25.00
2017,05,27,15,07,25.00
2017,05,27,15,08,25.10
2017,05,27,15,09,25.10
2017,05,27,15,10,25.20
2017,05,27,15,11,25.20
2017,05,27,15,12,25.20
2017,05,27,15,13,25.30
2017,05,27,15,14,25.30
2017,05,27,15,15,25.40
2017,05,27,15,16,25.40
2017,05,27,15,17,25.40
2017,05,27,15,18,25.40
2017,05,27,15,19,25.50
2017,05,27,15,20,25.50
2017,05,27,15,21,25.60
2017,05,27,15,22,25.60
2017,05,27,15,23,25.60
2017,05,27,15,24,25.60
2017,05,27,15,25,25.60
2017,05,27,15,26,25.70
2017,05,27,15,27,25.70
2017,05,27,15,28,25.80
2017,05,27,15,29,25.80
2017,05,27,15,30,25.80
2017,05,27,15,31,25.80
2017,05,27,15,32,25.80
2017,05,27,15,33,25.80
2017,05,27,15,34,25.80
2017,05,27,15,35,25.80
2017,05,27,15,36,25.80
2017,05,27,15,37,25.70
2017,05,27,15,38,25.80
2017,05,27,15,39,25.80
2017,05,27,15,40,25.80
2017,05,27,15,41,25.80
2017,05,27,15,42,25.90
2017,05,27,15,43,25.90
2017,05,27,15,44,25.90
2017,05,27,15,45,25.90
2017,05,27,15,46,25.90
2017,05,27,15,47,25.90
2017,05,27,15,48,25.90
2017,05,27,15,49,25.90
2017,05,27,15,50,25.90
2017,05,27,15,51,25.90
2017,05,27,15,52,25.90
2017,05,27,15,53,25.90
2017,05,27,15,54,25.90
2017,05,27,15,55,25.90
2017,05,27,15,56,25.90
2017,05,27,15,57,25.90
2017,05,27,15,58,25.90
2017,05,27,15,59,25.90
2017,05,27,16,00,25.90
2017,05,27,16,01,25.90
2017,05,27,16,02,25.90
2017,05,27,16,03,25.90
2017,05,27,16,04,25.90
2017,05,27,16,05,25.90
2017,05,27,16,06,25.90
2017,05,27,16,07,25.90
2017,05,27,16,08,25.90
2017,05,27,16,09,25.90
2017,05,27,16,10,25.90
2017,05,27,16,11,25.90
2017,05,27,16,12,26.00
2017,05,27,16,13,26.10
2017,05,27,16,14,26.00
2017,05,27,16,15,26.00
2017,05,27,16,16,25.90
2017,05,27,16,17,25.90
2017,05,27,16,18,25.90
2017,05,27,16,19,26.00
2017,05,27,16,20,26.00
2017,05,27,16,21,26.00
2017,05,27,16,22,26.00
2017,05,27,16,23,26.10
2017,05,27,16,24,26.10
2017,05,27,16,25,26.20
2017,05,27,16,26,26.20
2017,05,27,16,27,26.30
2017,05,27,16,28,26.30
2017,05,27,16,29,26.20
2017,05,27,16,30,26.20
2017,05,27,16,31,26.20
2017,05,27,16,32,26.20
2017,05,27,16,33,26.20
2017,05,27,16,34,26.30
2017,05,27,16,35,26.30
2017,05,27,16,36,26.40
2017,05,27,16,37,26.40
2017,05,27,16,38,26.50
2017,05,27,16,39,26.60
2017,05,27,16,40,26.60
2017,05,27,16,41,26.60
2017,05,27,16,42,26.60
2017,05,27,16,43,26.50
2017,05,27,16,44,26.50
2017,05,27,16,45,26.50
2017,05,27,16,46,26.40
2017,05,27,16,47,26.40
2017,05,27,16,48,26.40
2017,05,27,16,49,26.40
2017,05,27,16,50,26.30
2017,05,27,16,51,26.40
2017,05,27,16,52,26.50
2017,05,27,16,53,26.50
2017,05,27,16,54,26.50
2017,05,27,16,55,26.60
2017,05,27,16,56,26.70
2017,05,27,16,57,26.80
2017,05,27,16,58,26.80
2017,05,27,16,59,26.90
2017,05,27,17,00,26.90
2017,05,27,17,01,26.90
2017,05,27,17,02,27.00
2017,05,27,17,03,27.10
2017,05,27,17,04,27.10
2017,05,27,17,05,27.20
2017,05,27,17,06,27.20
2017,05,27,17,07,27.20
2017,05,27,17,08,27.20
2017,05,27,17,09,27.30
2017,05,27,17,10,27.30
2017,05,27,17,11,27.30
2017,05,27,17,12,27.30
2017,05,27,17,13,27.30
2017,05,27,17,14,27.30
2017,05,27,17,15,27.30
2017,05,27,17,16,27.30
2017,05,27,17,17,27.30
2017,05,27,17,18,27.20
2017,05,27,17,19,27.20